Home   Weather   Münster   Past weeks

Flag for Germany Past Weather in Münster, North Rhine-Westphalia, Germany — Yesterday and Last 2 Weeks

Now
64 °F

Sunny.


Feels Like: 64 °F
Forecast: 49 / 76 °F
Wind: 2 mph from Northeast

Location: Muenster / Osnabrueck

Current Time: Aug 30, 2016 at 9:04:08 PM

Latest Report: Aug 30, 2016 at 8:20 PM


Visibility: 10 mi

Pressure: 30.24 "Hg

Humidity: 64%

Dew Point: 52 °F

Location of MünsterLocation

Past Weather in Münster — Graph

°F

Münster Temperature Yesterday

Maximum temperature yesterday: 70 °F (at 1:20 PM)
Minimum temperature yesterday: 54 °F (at 11:50 PM)
Average temperature yesterday: 65 °F

High & Low Weather Summary for the Past Weeks

 TemperatureHumidityPressure
High90 °F (Aug 25, 4:20 PM)100% (Aug 16, 3:50 AM)30.33 "Hg (Aug 16, 3:50 AM)
Low46 °F (Aug 17, 6:50 AM)29% (Aug 25, 5:20 PM)29.77 "Hg (Aug 19, 5:20 PM)
Average67 °F71%30.04 "Hg
* Reported Aug 15 7:20 PM — Aug 30 7:50 PM, Münster, Weather by CustomWeather, © 2016

Note: Actual official high and low records may vary slightly from our data, if they occured in-between our weather recording intervals... More about our weather records

Advertising

Münster Weather History for the Previous 24 Hours

Scroll right to see more
 ConditionsComfort  
Time TempWeatherWind HumidityBarometerVisibility
7:50 PM
Tue, Aug 30
68 °FSunny.2 mph56%30.24 "Hg10 mi
7:20 PM72 °FSunny.1 mph50%30.24 "Hg10 mi
6:50 PM72 °FSunny.2 mph44%30.24 "Hg10 mi
6:20 PM73 °FSunny.1 mph38%30.24 "Hg10 mi
5:50 PM72 °FPassing clouds.3 mph41%30.24 "HgN/A
5:20 PM73 °FSunny.2 mph41%30.27 "Hg10 mi
4:50 PM73 °FSunny.2 mph38%30.27 "Hg10 mi
4:20 PM73 °FSunny.3 mph44%30.27 "Hg10 mi
3:50 PM72 °FSunny.5 mph44%30.27 "Hg10 mi
3:20 PM73 °FSunny.N/A38%30.30 "Hg10 mi
2:50 PM72 °FSunny.5 mph44%30.30 "Hg10 mi
2:20 PM70 °FSunny.5 mph43%30.30 "Hg10 mi
1:50 PM70 °FPassing clouds.6 mph50%30.30 "HgN/A
1:20 PM70 °FPassing clouds.3 mph50%30.30 "HgN/A
12:50 PM68 °FPassing clouds.3 mph49%30.33 "HgN/A
12:20 PM68 °FPassing clouds.2 mph53%30.33 "HgN/A
11:50 AM66 °FPassing clouds.2 mph60%30.33 "HgN/A
11:20 AM66 °FPassing clouds.5 mph60%30.33 "HgN/A
10:50 AM64 °FPassing clouds.1 mph64%30.33 "HgN/A
10:20 AM64 °FSunny.No wind68%30.33 "Hg10 mi
9:50 AM63 °FSunny.No wind73%30.33 "Hg10 mi
9:20 AM59 °FSunny.1 mph82%30.30 "Hg10 mi
8:50 AM57 °FSunny.No wind82%30.30 "Hg10 mi
8:20 AM54 °FSunny.No wind94%30.30 "Hg10 mi
7:50 AM50 °FLight fog.1 mph94%30.30 "HgN/A
7:20 AM46 °FCool.No wind100%30.27 "Hg5 mi
6:50 AM48 °FCool.No wind94%30.27 "HgN/A
6:20 AM46 °FCool.No wind100%30.27 "HgN/A
5:50 AM46 °FCool.1 mph100%30.27 "HgN/A
5:20 AM48 °FCool.No wind94%30.27 "HgN/A
4:50 AM48 °FCool.No wind94%30.27 "HgN/A
4:20 AM48 °FCool.No wind100%30.27 "HgN/A
3:50 AM48 °FCool.No wind100%30.27 "HgN/A
3:20 AM48 °FCool.No wind100%30.27 "HgN/A
2:50 AM50 °FCool.No wind94%30.27 "HgN/A
2:20 AM50 °FCool.No wind100%30.27 "HgN/A
1:50 AM52 °FFog.No wind94%30.27 "HgN/A
1:20 AM52 °FClear.No wind94%30.24 "Hg10 mi
12:50 AM52 °FClear.1 mph94%30.24 "Hg10 mi
12:20 AM54 °FClear.No wind88%30.24 "Hg10 mi
11:50 PM
Mon, Aug 29
54 °FClear.No wind94%30.24 "Hg10 mi
11:20 PM55 °FClear.1 mph88%30.24 "Hg10 mi
10:50 PM57 °FClear.2 mph82%30.24 "Hg10 mi
10:20 PM59 °FClear.3 mph77%30.21 "Hg10 mi
9:50 PM61 °FClear.7 mph72%30.21 "Hg10 mi
9:20 PM61 °FPassing clouds.5 mph77%30.18 "HgN/A
Weather by CustomWeather, © 2016

See weather overviewHow to use our weather pages